Location: ????????
(48.3718°N, 37.8884°E)
Time: 02:31:20
(UTC+00:00)

Daily predictions for brighter satellites

Satellite Brightness Start Highest point End
(mag) Time Altitude Azimuth Time Altitude Azimuth Time Altitude Azimuth
CENTAUR R/B 4.0 00:27:06 43° E 00:27:06 43° E 00:32:56 10° ESE
Lacrosse 5 4.0 01:13:32 23° ESE 01:13:32 23° ESE 01:16:38 10° ENE
ATLAS CENTAUR R/B 4.5 01:19:43 11° ENE 01:19:43 11° ENE 01:20:00 10° ENE
Cosmos 2263 Rocket 3.3 01:19:41 40° ENE 01:19:41 40° ENE 01:23:42 10° NE
SJ 16-02 3.4 01:31:42 26° ENE 01:31:42 26° ENE 01:34:34 10° NE
CZ-4C R/B 4.0 01:40:32 14° SSE 01:43:38 25° ESE 01:48:12 10° ENE
ATLAS 3B R/B 3.2 01:43:18 44° N 01:45:03 55° NE 01:52:02 10° ESE
Cosmos 1943 4.0 01:54:07 40° S 01:54:07 40° S 01:57:41 10° SSE
COSMO-SKYMED 1 4.2 01:48:35 10° SE 01:52:27 33° ENE 01:53:34 28° NE
Lacrosse 4 Rocket 3.1 02:01:50 28° SSE 02:01:50 28° SSE 02:03:58 10° SSE
Cosmos 2227 Rocket 4.2 02:15:24 14° N 02:15:24 14° N 02:16:41 10° N
NOSS 3-2 (C) 4.3 02:12:37 47° WSW 02:12:49 47° WSW 02:20:51 10° S
Cosmos 923 Rocket 3.9 02:13:13 73° NNW 02:13:45 87° ENE 02:19:04 10° SSE
NOSS 3-4 (A) 3.3 02:13:21 53° SW 02:14:53 87° SE 02:21:17 10° NE
NOSS 3-4 (C) 3.3 02:13:24 52° SW 02:15:01 86° SE 02:21:25 10° NE
CENTAUR R/B 3.4 02:14:21 47° WSW 02:15:03 48° WSW 02:23:22 10° S
ALOS 2.3 02:10:29 10° NNE 02:14:47 74° NNE 02:14:47 74° NNE
METEOR-M 4.3 02:11:46 10° NNE 02:17:08 72° ESE 02:22:28 10° S
deb Chang Zheng 4 4.2 02:13:37 10° NNE 02:17:54 55° ESE 02:22:10 10° S
Cosmos 2227 4.2 02:19:36 60° NW 02:19:36 60° NW 02:24:49 10° NNE
BREEZE-M DEB (TANK) 3.9 02:24:52 32° SE 02:24:52 32° SE 02:27:38 10° E
ARGOS Delta rocket 3.8 02:20:01 10° N 02:25:10 71° WNW 02:25:10 71° WNW
USA 305 3.9 02:26:38 37° NNE 02:26:38 37° NNE 02:30:20 10° ENE
Meteor 1-31 Rocket 3.5 02:27:06 10° NNE 02:29:48 44° NNE 02:29:48 44° NNE
Cosmos 158 Rocket 3.7 02:30:47 67° W 02:31:01 69° WSW 02:35:56 10° SSE
SAR-Lupe-1 4.3 02:28:17 10° SSE 02:31:30 65° ESE 02:31:30 65° ESE
ATLAS 2AS CENTAUR R/B 3.0 02:27:56 16° SW 02:34:36 90° NW 02:42:29 10° NE
USA 306 3.7 02:34:44 38° N 02:34:46 38° N 02:38:48 10° ENE
Cosmos 1515 Rocket 3.7 02:32:24 23° N 02:35:10 73° E 02:39:37 10° SSE
Cosmos 1812 4.3 02:32:36 10° N 02:36:09 34° ENE 02:39:39 10° SE
Cosmos 1844 Rocket 3.7 02:31:20 10° S 02:36:42 46° ESE 02:42:06 10° NE
Cosmos 1151 Rocket 3.9 02:40:06 33° SSW 02:40:06 33° SSW 02:42:39 10° S
SL-4 R/B 2.2 02:39:28 52° N 02:39:28 52° N 02:42:55 10° ENE
SKYMED 2 3.4 02:36:03 10° SSE 02:40:24 87° WSW 02:42:12 35° NNW
PSLV R/B 4.1 02:36:31 10° SSE 02:40:38 71° ENE 02:43:01 24° N
Cosmos 1782 2.6 02:40:54 72° NW 02:41:13 79° W 02:45:14 10° S
Cosmos 1680 Rocket 3.4 02:39:40 38° NW 02:41:44 73° WSW 02:47:01 10° SSE
SJ-12 3.8 02:42:22 10° NNE 02:46:27 86° ESE 02:50:30 10° SSW
ERS-2 4.3 02:44:01 10° S 02:44:43 15° SSW 02:44:43 15° SSW
Cosmos 2297 Rocket 4.3 02:48:41 11° NNW 02:48:41 11° NNW 02:49:29 10° N
FALCON 9 DEB 3.0 02:52:21 66° S 02:52:31 68° SSE 02:55:43 10° ENE
ADEOS 3.6 02:47:32 10° N 02:52:39 55° WNW 02:57:44 10° SW
FALCON 9 DEB 4.0 02:53:23 37° N 02:53:27 37° N 02:56:43 10° ENE
CRYOSAT 2 4.3 02:48:50 10° S 02:53:39 63° W 02:58:30 10° N
Meteor 2-6 Rocket 4.2 02:49:22 10° N 02:54:47 78° ENE 03:00:14 10° SSE
Lacrosse 5 1.7 02:52:48 33° WSW 02:55:07 82° NW 03:00:14 10° NE
RESURS DK-1 2.5 02:52:34 10° SSW 02:56:42 74° ESE 03:00:53 10° NNE
ATLAS CENTAUR R/B 1.0 02:55:55 53° NW 02:56:45 85° SW 03:00:41 10° SE
Cosmos 1328 Rocket 4.0 02:58:31 39° WSW 02:58:31 39° WSW 03:02:21 10° SSW
Cosmos 1500 Rocket 3.8 02:55:31 10° S 02:59:47 67° E 03:04:06 10° NNE
Meteor PRIRODA 3.6 02:57:13 10° NNE 03:00:59 87° ESE 03:04:43 10° SSW
Cosmos 2112 Rocket 4.1 02:58:30 26° NW 03:01:27 59° WSW 03:06:41 10° S
Gbstr 26 Del rocket 3.0 03:01:01 42° WSW 03:01:35 46° SSW 03:05:20 10° SE
Cosmos 2263 Rocket 2.8 03:01:26 32° WNW 03:02:22 34° NW 03:07:32 10° NNE
H-2A R/B 3.3 03:00:35 10° NNE 03:04:28 60° E 03:08:18 10° S
Nadezhda 3 Rocket 4.3 02:58:20 10° N 03:04:40 71° ENE 03:10:53 10° SSE
ERBS 3.8 03:05:19 22° N 03:05:19 22° N 03:07:40 10° NE
Cosmos 1437 Rocket 3.8 03:02:00 10° N 03:05:39 44° ENE 03:09:16 10° SSE
Okean O Rocket 4.3 03:02:11 10° NE 03:05:42 22° E 03:09:11 10° SE
SJ 16-02 1.9 03:08:47 34° WNW 03:09:14 35° WNW 03:13:21 10° N
Cosmos 1898 Rocket 3.4 03:08:01 10° SSW 03:13:20 75° WNW 03:18:42 10° NNE
CZ-2C R/B 3.9 03:09:01 10° SE 03:14:04 40° ENE 03:19:02 10° N
FENGYUN 3A 4.3 03:11:49 10° N 03:16:37 33° WNW 03:21:22 10° SW
NOSS 7 (H) 4.3 03:15:14 10° SW 03:18:34 75° SE 03:21:29 10° NE
Envisat 3.7 03:13:34 10° NNE 03:18:36 58° E 03:23:36 10° S
Cosmos 2181 Rocket 4.5 03:13:25 10° NNW 03:18:59 35° W 03:24:28 10° SSW
Sich 1 4.3 03:16:40 10° SSE 03:20:52 44° E 03:25:06 10° NNE
Cosmos 2082 Rocket 4.0 03:17:36 10° N 03:22:16 25° NE 03:26:56 10° E
Cosmos 1743 Rocket 3.5 03:19:17 10° SSW 03:23:43 69° W 03:28:13 10° N
H-2A R/B 3.1 03:21:52 10° NNE 03:25:40 52° ESE 03:29:24 10° S
FALCON 9 DEB 2.8 03:24:13 29° WSW 03:25:42 77° NNW 03:28:55 10° ENE
FALCON 9 DEB 2.8 03:24:24 29° WSW 03:25:52 73° NNW 03:29:06 10° ENE
Cosmos 1408 Rocket 4.1 03:21:46 10° SW 03:25:53 36° WNW 03:30:02 10° N
COSMO-SKYMED 1 3.4 03:24:50 10° SSW 03:28:37 29° W 03:30:47 19° NW
Cosmos 1937 Rocket 3.4 03:25:23 10° SSW 03:30:32 73° WNW 03:35:45 10° NNE
CZ-4C R/B 2.1 03:26:28 10° SW 03:31:30 63° NW 03:37:39 10° NE
USA 307 3.6 03:28:58 21° NW 03:31:31 45° NNE 03:35:41 10° E
Cosmos 2154 Rocket 4.0 03:25:38 10° S 03:31:52 84° W 03:38:12 10° N
Meteor 2-3 Rocket 4.4 03:27:55 10° SW 03:32:58 31° WNW 03:38:05 10° N
Cosmos 1833 Rocket 3.7 03:27:39 10° NNW 03:33:02 43° NE 03:38:22 10° SE
BREEZE-M DEB (TANK) 4.2 03:30:34 18° WNW 03:34:49 34° SW 03:37:42 10° SSE
ATLAS 3B R/B 3.2 03:30:35 17° NW 03:35:41 44° WSW 03:42:25 10° S
Meteor 1-27 Rocket 3.9 03:30:19 10° N 03:36:07 84° ENE 03:42:00 10° SSE
MOS 1 Rocket 3.5 03:32:04 10° S 03:36:50 61° W 03:41:56 10° NNW
Lacrosse 4 Rocket 3.6 03:38:11 11° WSW 03:38:11 11° WSW 03:38:50 10° WSW
USA 308 3.5 03:35:04 19° NW 03:37:54 46° NNE 03:42:04 10° E
Meteor 1-10 Rocket 4.2 03:32:33 10° NNW 03:38:02 60° W 03:43:31 10° S
CZ-4B R/B 3.7 03:36:40 10° N 03:40:47 36° WNW 03:44:50 10° SW
COSMOS 2406 3.8 03:37:07 10° NNW 03:42:49 60° ENE 03:48:30 10° SE
Cosmos 1805 Rocket 3.5 03:38:27 10° S 03:42:54 85° W 03:47:24 10° N
Cosmos 1689 Rocket 4.0 03:45:16 10° SW 03:46:14 13° WSW 03:46:14 13° WSW
Cosmos 1048 Rocket 4.4 03:41:42 10° NNW 03:47:00 67° ENE 03:52:10 10° SSE
Cosmos 2341 Rocket 4.3 03:41:36 10° S 03:47:44 73° E 03:53:57 10° NNE
FALCON 9 DEB 3.1 03:46:09 16° W 03:48:34 57° NNW 03:51:46 10° ENE
Cosmos 1666 Rocket 4.3 03:45:48 10° S 03:50:00 56° E 03:54:16 10° NNE
Cosmos 2327 Rocket 4.5 03:45:28 10° SSW 03:51:28 59° WNW 03:57:29 10° N
ALOS 3.8 03:49:25 10° NNW 03:51:58 15° WNW 03:53:16 13° WNW
Cosmos 2278 Rocket 4.0 03:46:52 10° S 03:51:59 37° ESE 03:57:08 10° NE
Cosmos 1862 3.8 03:48:14 10° SW 03:52:02 38° WNW 03:55:52 10° N
Cosmos 2074 Rocket 4.4 03:47:13 10° SW 03:53:00 40° WNW 03:58:50 10° N
Aureole 2 Rocket 1.8 03:50:36 10° SW 03:53:04 45° WNW 03:55:33 10° NNE
YAOGAN 6 2.5 03:49:58 10° N 03:53:25 59° WNW 03:56:51 10° SSW
Genesis I 3.6 03:51:09 10° WSW 03:54:47 40° NW 03:58:28 10° NNE
EXPRESS MD2 4.1 03:53:25 14° WNW 03:56:49 75° SSW 04:04:49 10° ESE
PSLV R/B 4.1 03:57:20 10° N 04:01:01 41° WNW 04:04:36 10° SW
Cosmos 1295 Rocket 4.5 03:58:35 10° SSW 04:04:34 60° WNW 04:10:37 10° N
NOAA 12 4.2 03:59:21 10° NNE 04:04:39 82° ESE 04:09:54 10° SSW
NOSS 3-4 (A) 4.3 04:01:11 10° W 04:06:33 31° NNW 04:12:22 10° NE
NOSS 3-4 (C) 4.3 04:01:18 10° W 04:06:40 31° NNW 04:12:29 10° NE
USA 305 3.3 04:02:46 11° WNW 04:06:51 58° NNE 04:11:06 10° E
Cosmos 405 Rocket 3.5 04:05:18 10° SW 04:08:30 27° WNW 04:11:47 10° N
USA 234 3.6 04:03:19 10° ENE 04:09:53 73° SE 04:16:25 10° SW
Cosmos 1812 4.1 04:08:50 10° NW 04:11:43 20° W 04:14:34 10° SW
Cosmos 2228 Rocket 4.1 04:08:12 10° NNW 04:11:48 25° W 04:15:23 10° SW
USA 306 3.2 04:11:00 10° WNW 04:15:18 63° NNE 04:19:34 10° ESE
Cosmos 1633 Rocket 3.2 04:12:05 10° S 04:16:30 87° E 04:20:57 10° N
SL-4 R/B 1.9 04:15:19 10° WNW 04:19:08 65° NNE 04:22:42 10° E
Cosmos 1844 Rocket 3.3 04:15:34 10° WSW 04:20:44 35° NW 04:25:57 10° NNE
ATLAS 2AS CENTAUR R/B 3.6 04:19:17 10° W 04:26:32 37° NNW 04:33:34 10° NE
COSMOS 2455 2.9 04:21:18 10° SW 04:27:17 65° NW 04:33:20 10° NNE
